Tracking 23726 objects as of 22-Sep-2021
HD Live streaming from Space Station
objects crossing your sky now

MOLNIYA 3-47

Track MOLNIYA 3-47 now!
MOLNIYA 3-47 is classified as:


NORAD ID: 23642
Int'l Code: 1995-042A
Perigee: 1,950.5 km
Apogee: 38,189.1 km
Inclination: 63.6 °
Period: 713.1 minutes
Semi major axis: 26440 km
RCS: 13.479 m2 (large)
Launch date: August 9, 1995
Source: Commonwealth of Independent States (former USSR) (CIS)
Launch site: PLESETSK MISSILE AND SPACE COMPLEX (PKMTR)
aabbcc
Your satellite tracking list
Your tracking list is empty




NASA's NSSDC Master Catalog

Two Line Element Set (TLE):
1 23642U 95042A   21264.89444752 -.00000054  00000-0  00000-0 0  9995
2 23642  63.6033 105.0144 6852796 286.1165  12.9483  2.01925448191594
Source of the keplerian elements: AFSPC